Location: Newark
(45.2500°N, 7.5833°E)
Time: 22:00:06
(UTC+00:00)

Tiros 1 despin weight - Pass Details

Date: 01 February 2020
Orbit: 594 x 642 km, 48.2° (Epoch: 20 February)

Event Time Altitude Azimuth Distance (km) Brightness Sun altitude
Rises 08:10:15 0° 229° (SW) 2,827 ? 11.1°
Reaches altitude 10° 08:12:34 10° 224° (SW) 1,933 ? 11.4°
Maximum altitude 08:16:50 49° 149° (SSE) 783 ? 12.0°
Drops below altitude 10° 08:21:11 10° 75° (ENE) 1,966 ? 12.6°
Sets 08:23:33 0° 70° (ENE) 2,882 ? 12.9°
